GW3281 Weather Reports


time (UTC)temp
F
wind
direction
speed
knots
gust
knots
rain 1hr
in
rain 24hr
in
rain mn
in
humidity
%
barometer
mb
20260504040020 54 93 0.9 2.6 0.00 0.10 0.10 74 1006.6
20260504035017 55 125 1.7 2.6 0.00 0.10 0.10 73 1006.6
20260504034017 55 136 1.7 3.5 0.00 0.10 0.10 73 1006.7
20260504033017 55 97 1.7 2.6 0.00 0.10 0.10 72 1006.8
20260504032021 56 121 0.9 2.6 0.00 0.10 0.10 70 1006.9
20260504031018 57 121 0.9 2.6 0.00 0.10 0.10 69 1006.9
20260504030018 58 132 0.9 3.5 0.00 0.10 0.10 67 1006.6
20260504025018 58 158 0.9 2.6 0.00 0.10 0.10 65 1006.6
20260504024118 59 192 0.9 3.5 0.00 0.10 0.10 64 1006.6
20260504023018 59 211 0.9 4.3 0.00 0.10 0.10 64 1006.5
20260504022018 59 194 0.9 4.3 0.00 0.10 0.10 63 1006.4
20260504021019 59 188 0.9 3.5 0.00 0.10 0.10 62 1006.3
20260504020039 59 183 1.7 3.5 0.00 0.10 0.10 62 1006.3
20260504015019 59 207 1.7 5.2 0.00 0.10 0.10 62 1006.1
20260504014020 60 212 0.9 3.5 0.00 0.10 0.10 61 1006.1
20260504013019 60 183 0.9 2.6 0.00 0.10 0.10 60 1006.2
20260504012020 61 132 0.9 2.6 0.00 0.10 0.10 59 1006.1
20260504011037 62 104 1.7 2.6 0.00 0.10 0.10 58 1006.0
20260504010018 62 161 1.7 4.3 0.00 0.10 0.10 57 1006.0
20260504005018 63 173 1.7 6.1 0.00 0.10 0.10 55 1006.0
20260504004020 64 212 1.7 7.0 0.00 0.10 0.10 53 1006.0
20260504003020 64 208 2.6 5.2 0.00 0.10 0.10 52 1006.0
20260504002018 65 216 1.7 7.0 0.00 0.10 0.10 51 1006.0
20260504001058 66 214 2.6 5.2 0.00 0.10 0.10 50 1006.1
20260504000018 66 228 2.6 6.1 0.00 0.10 0.10 48 1006.2
20260503235018 67 235 2.6 7.0 0.00 0.10 0.10 47 1006.1
20260503234018 67 220 3.5 9.6 0.00 0.10 0.10 46 1006.0
20260503233019 67 232 5.2 11.3 0.00 0.10 0.10 46 1006.0
20260503232038 68 246 4.3 8.7 0.00 0.10 0.10 46 1006.0
20260503231019 68 234 5.2 12.2 0.00 0.10 0.10 45 1006.1
20260503230019 67 227 3.5 9.6 0.00 0.10 0.10 45 1006.2
20260503225016 66 213 4.3 9.6 0.00 0.10 0.10 47 1006.3
20260503224019 65 219 3.5 7.8 0.00 0.10 0.10 48 1006.4
20260503223039 64 201 1.7 7.0 0.00 0.10 0.10 50 1006.5
20260503222019 65 226 3.5 7.0 0.00 0.10 0.10 48 1006.6
20260503221020 65 213 3.5 7.0 0.00 0.10 0.10 48 1006.7
20260503220017 65 195 2.6 7.0 0.00 0.10 0.10 48 1006.7
20260503215017 65 229 4.3 11.3 0.00 0.10 0.10 47 1006.7
20260503214020 65 225 4.3 10.4 0.00 0.10 0.10 47 1006.9
20260503213021 65 216 3.5 8.7 0.00 0.10 0.10 47 1007.1
20260503212018 66 231 4.3 8.7 0.00 0.10 0.10 47 1007.3
20260503211018 65 217 5.2 10.4 0.00 0.10 0.10 47 1007.5
20260503210018 64 214 4.3 10.4 0.00 0.10 0.10 47 1007.6
20260503205018 63 219 4.3 10.4 0.00 0.10 0.10 46 1007.8
20260503204038 63 220 4.3 9.6 0.00 0.10 0.10 46 1008.0
20260503203018 62 224 4.3 12.2 0.00 0.10 0.10 48 1008.0
20260503202019 62 212 4.3 8.7 0.00 0.10 0.10 46 1008.3
20260503201019 63 225 5.2 10.4 0.00 0.10 0.10 47 1008.2
20260503200019 63 211 4.3 10.4 0.00 0.10 0.10 46 1008.4
20260503195019 64 228 4.3 8.7 0.00 0.10 0.10 47 1008.4
20260503194019 64 227 5.2 13.0 0.00 0.10 0.10 47 1008.5
20260503193039 63 215 3.5 10.4 0.00 0.10 0.10 50 1008.8
20260503192020 62 222 4.3 8.7 0.00 0.10 0.10 52 1008.9
20260503191017 62 194 3.5 8.7 0.00 0.10 0.10 52 1009.1
20260503190017 61 204 4.3 10.4 0.00 0.10 0.10 56 1009.2
20260503185017 60 198 4.3 13.0 0.00 0.10 0.10 57 1009.4
20260503184020 59 175 3.5 12.2 0.00 0.10 0.10 62 1009.7
20260503183020 57 123 2.6 7.0 0.00 0.10 0.10 67 1009.9
20260503182018 55 138 2.6 6.1 0.00 0.10 0.10 72 1010.1
20260503181018 52 100 2.6 6.1 0.00 0.10 0.10 77 1010.6
20260503180018 51 80 2.6 5.2 0.01 0.10 0.10 78 1011.0
20260503175018 50 75 1.7 4.3 0.01 0.10 0.10 79 1011.5
20260503174018 50 76 1.7 3.5 0.01 0.10 0.10 78 1011.9
20260503173019 50 97 2.6 5.2 0.02 0.10 0.10 82 1012.6
20260503172019 50 93 1.7 3.5 0.02 0.10 0.10 83 1012.7
20260503171020 50 175 2.6 7.8 0.02 0.10 0.10 81 1012.9
20260503131017 49 222 2.6 6.1 0.00 0.00 0.00 66 1014.1
20260503081018 40 103 0.9 1.7 0.00 0.00 0.00 76 1014.4
20260503072019 41 107 0.9 1.7 0.00 0.00 0.00 73 1014.3
20260503071019 41 120 0.9 2.6 0.00 0.00 0.00 71 1014.4
20260503055021 43 111 1.7 3.5 0.00 0.00 0.00 68 1015.1
20260503054017 43 106 0.9 2.6 0.00 0.00 0.00 68 1015.1
20260503053018 42 138 0.9 2.6 0.00 0.00 0.00 69 1015.2
20260503052018 42 95 0.9 1.7 0.00 0.00 0.00 71 1015.3
20260503051018 42 103 0.9 1.7 0.00 0.00 0.00 71 1015.3
20260503050018 42 101 0.9 1.7 0.00 0.00 0.00 71 1015.4
20260503045019 42 104 0.9 2.6 0.00 0.00 0.00 70 1015.4
20260503044019 42 89 0.9 1.7 0.00 0.00 0.00 70 1015.4
20260503043019 42 104 0.9 1.7 0.00 0.00 0.00 70 1015.4
20260503042019 42 105 1.7 1.7 0.00 0.00 0.00 71 1015.5
20260503041016 42 104 0.9 1.7 0.00 0.00 0.00 72 1015.5